Погода в Понырях

Россия / Курская область     52°19′04″N   36°18′03″E
темп.,
°C
ветер,
м/с
пор.,
м/с
влажн.,
%
обл.,
%
осадки,
мм/ч
давл.,
гПа
погр.,
м
19 мая, ср
ср1900:00+14юв3695100 0.6 1003160
03:00+13ююв379511 0.6 1003149
06:00+12ююв4109583 0.0 1004341
09:00+15ююв588163 0.1 1005649
12:00+18ююв6770100 0.6 10051309
15:00+17ююв467196 0.8 10061186
18:00+13ююв2494100 0.9 1005217
21:00+13св2395100 1.2 1004146
20 мая, чт
чт2000:00+11ююз6998100 7.3 1002549
03:00+11ююв4996100 14.6 1003374
06:00+11ю3698100 0.9 1003412
09:00+11ю5896100 2.6 1003506
12:00+11ююз3796100 1.1 1005465
15:00+13зюз5894100 2.4 1006719
18:00+12зюз589398 0.3 1007545
21:00+11юз589699 0.3 1009441
21 мая, пт
пт2100:00+10з599488 0.0 1010425
03:00+8зюз41297100 0.0 1012295
06:00+9з41193100 0.0 1014304
09:00+13зсз467885 0.0 1015594
12:00+17зсз3363100 0.0 10151318
15:00+17сз1159100 0.2 10151163
18:00+17ссв1166100 0.4 1016897
21:00+13вюв227899 0.8 101712
22 мая, сб
сб2200:00+12в1184100 0.0 101710
03:00+10св3387100 0.0 101732
06:00+11св3989100 0.0 1018255
09:00+13в5982100 0.0 1017527
12:00+12всв5994100 1.8 1017437
15:00+12св4895100 2.2 1017345
18:00+14св5787100 0.0 1016438
21:00+12св389673 0.0 1015220
23 мая, вс
вс2300:00+11всв51298100 0.0 1013284
03:00+10всв3998100 0.0 1013269
06:00+11в4798100 0.1 1011261
09:00+14юв3593100 0.3 1010385
12:00+17ю2488100 2.2 1008517
15:00+19ююз4685100 3.1 1006852
18:00+18зюз5887100 0.2 1006655
21:00+14з61193100 0.3 1007506